Regional Weather Roundup
Issued by NWS

Home | Current Version | Previous Version | Graphics & Text | Print | Product List | Glossary On
Versions: 1 2 3 4 5 6 7 8 9 10 11 12 13 14 15 16 17 18 19 20 21 22 23 24 25 26 27 28 29 30 31 32 33 34 35 36 37 38 39 40 41 42 43 44 45 46 47 48 49 50
000
ASUS43 KOAX 220510
RWRNE

WEATHER ROUNDUP FOR NEBRASKA
NATIONAL WEATHER SERVICE OMAHA NE
1200 AM CDT SUN APR 22 2018

NOTES: SATELLITE DATA IS BEING USED TO AUGMENT CLOUD COVER ABOVE
       12000 FEET.
       "FAIR" INDICATES FEW OR NO CLOUDS BELOW 12,000 FEET WITH NO
       SIGNIFICANT WEATHER AND/OR OBSTRUCTIONS TO VISIBILITY.


NEZ001>004-019>022-054>056-220600-
NEBRASKA PANHANDLE

CITY           SKY/WX    TMP DP  RH WIND       PRES   REMARKS
SCOTTSBLUFF    PTCLDY    35  35 100 E7        30.18S WCI  29
ALLIANCE       PTCLDY    34  34 100 SE9       30.18F WCI  27
CHADRON        CLEAR     38  34  85 SW7       30.17S WCI  33
GORDON         MOCLDY    37  35  91 S5        30.19F WCI  33
KIMBALL        MOCLDY    34  34  99 S9        30.17F WCI  27
SIDNEY         MOCLDY    34  33  96 S7        30.20S WCI  28
$$

NEZ057>060-069>072-079>082-220600-
SOUTHWEST NEBRASKA

CITY           SKY/WX    TMP DP  RH WIND       PRES   REMARKS
NORTH PLATTE   CLOUDY    41  38  89 S5        30.25F
IMPERIAL       CLOUDY    40  39  97 CALM      30.23F
LEXINGTON      CLOUDY    42  39  92 CALM      30.26S
MCCOOK         CLOUDY    41  40  96 N3        30.24S FOG
OGALLALA       CLOUDY    41  39  95 CALM      30.23F FOG
$$

NEZ005>010-023>029-035>040-094-220600-
NORTH CENTRAL NEBRASKA

CITY           SKY/WX    TMP DP  RH WIND       PRES   REMARKS
VALENTINE      PTCLDY    39  36  89 S6        30.24F WCI  35
AINSWORTH      CLOUDY    38  37  96 CALM      30.25S
BROKEN BOW     CLOUDY    41  37  86 S3        30.24F
O`NEILL        CLOUDY    43  38  82 CALM      30.27S
ORD            CLOUDY    41  38  89 CALM      30.25F
THEDFORD       CLOUDY    41  37  87 SE3       30.25F
$$

NEZ041-046>049-061>064-073>077-083>087-220600-
SOUTH CENTRAL NEBRASKA

CITY           SKY/WX    TMP DP  RH WIND       PRES   REMARKS
GRAND ISLAND   LGT RAIN  42  39  89 CALM      30.28R FOG
AURORA         DRIZZLE   41  40  95 CALM      30.27S
HASTINGS       LGT RAIN  41  40  96 SE6       30.27S
HEBRON         LGT RAIN  44  42  90 CALM      30.24F
HOLDREGE       CLOUDY    40  40 100 N3        30.25S
KEARNEY        LGT RAIN  39  39 100 E8        30.27S WCI  34
YORK             N/A     45  41  87 CALM      30.26F
$$

NEZ011>018-030>034-042>045-220600-
NORTHEAST NEBRASKA

CITY           SKY/WX    TMP DP  RH WIND       PRES   REMARKS
NORFOLK        CLOUDY    43  36  76 CALM      30.26S
ALBION         CLOUDY    44  38  80 CALM      30.26F
BLAIR          CLOUDY    49  29  45 E7        30.24S
COLUMBUS       CLOUDY    44  34  67 N5        30.27S
FREMONT        CLOUDY    46  34  64 CALM      30.26S
TEKAMAH        CLOUDY    41  31  67 N8        30.25F
WAYNE          CLOUDY    43  39  86 CALM      30.27F
$$

NEZ050>053-065>068-078-088>093-220600-
SOUTHEAST NEBRASKA

CITY           SKY/WX    TMP DP  RH WIND       PRES   REMARKS
LINCOLN        CLOUDY    47  35  63 NW5       30.25S
OMAHA EPPLEY   CLOUDY    52  27  38 E9        30.24F
BEATRICE       CLOUDY    47  39  71 N6        30.22F
FALLS CITY     CLOUDY    50  32  50 NE7       30.19F
NEBRASKA CITY  CLOUDY    51  29  43 E9        30.23S
PLATTSMOUTH    CLOUDY    50  29  43 E9        30.24S
$$

NEZ044-045-051>053-067-220600-
OMAHA AREA

CITY           SKY/WX    TMP DP  RH WIND       PRES   REMARKS
OMAHA EPPLEY   CLOUDY    52  27  38 E9        30.24F
BLAIR          CLOUDY    49  29  45 E7        30.24S
FREMONT        CLOUDY    46  34  64 CALM      30.26S
MILLARD        CLOUDY    53  29  39 E5        30.24F
OFFUTT AFB     CLOUDY    51  27  40 E9        30.23S
PLATTSMOUTH    CLOUDY    50  29  43 E9        30.24S
WAHOO          CLOUDY    46  32  58 N7        30.25S
$$



USA.gov is the U.S. government's official web portal to all federal, state and local government web resources and services.